This demonstration page uses our WeatherBlox Daily Observations layout. Learn more.

Left ArrowRight Arrow

31.84235, -102.49876

Hourly Observations for May 28, 2017

Temp ( °F °C ) Dew Point ( °F °C ) Humidity (%) Winds ( mph kmh ) Pressure ( in mb ) Visibility ( mi km ) Precip ( " mm )
12:53 am 00:53 Clear 77 25 39 3.9 26 26 S 9 15 29.77 1008 10 16 0.00 0.00
1:53 am 01:53 Clear 77 25 62 16.7 60 60 SSW 8 13 29.77 1008 10 16 0.00 0.00
2:53 am 02:53 Clear 76 24.4 63 17.2 64 64 W 5 7 29.76 1008 9 14 0.00 0.00
3:53 am 03:53 Clear 75 23.9 63 17.2 66 66 NNW 15 24 29.77 1008 8 13 0.00 0.00
4:53 am 04:53 Clear 73 22.8 47 8.3 40 40 NE 22 35 29.81 1010 10 16 0.00 0.00
5:53 am 05:53 Clear 67 19.4 54 12.2 63 63 NE 16 26 29.86 1011 10 16 0.00 0.00
6:53 am 06:53 Sunny 63 17.2 50 10 63 63 NE 20 31 29.88 1012 10 16 0.00 0.00
7:53 am 07:53 Sunny 64 17.8 51 10.6 63 63 NNE 16 26 29.93 1014 10 16 0.00 0.00
8:53 am 08:53 Sunny 67 19.4 52 11.1 59 59 NE 22 35 29.96 1015 10 16 0.00 0.00
9:53 am 09:53 Sunny 70 21.1 53 11.7 55 55 NE 20 31 29.99 1016 10 16 0.00 0.00
10:53 am 10:53 Sunny 72 22.2 50 10 46 46 NNE 17 28 30.01 1016 10 16 0.00 0.00
11:53 am 11:53 Sunny 77 25 48 8.9 36 36 NNE 16 26 30.00 1016 10 16 0.00 0.00
12:53 pm 12:53 Sunny 81 27.2 47 8.3 30 30 ENE 21 33 29.98 1015 10 16 0.00 0.00
1:33 pm 13:33 Sunny with Nearby Thunderstorms 81 27.2 46 7.8 29 29 ENE 20 31 29.91 1013 10 16 0.00 0.00
1:53 pm 13:53 Sunny 83 28.3 46 7.8 27 27 ENE 16 26 29.96 1015 10 16 0.00 0.00
2:53 pm 14:53 Sunny 85 29.4 45 7.2 25 25 E 20 31 29.94 1014 10 16 0.00 0.00
3:53 pm 15:53 Mostly Sunny 85 29.4 44 6.7 24 24 E 14 22 29.93 1014 10 16 0.00 0.00
4:19 pm 16:19 Sunny with Nearby Thunderstorms 85 29.4 44 6.7 24 24 E 15 24 29.85 1011 10 16 0.00 0.00
4:34 pm 16:34 Sunny 86 30 46 7.8 25 25 E 16 26 29.88 1012 10 16 0.00 0.00
4:53 pm 16:53 Sunny 84 28.9 46 7.8 27 27 ESE 16 26 29.92 1013 10 16 0.00 0.00
5:53 pm 17:53 Sunny 83 28.3 47 8.3 28 28 E 20 31 29.91 1013 10 16 0.00 0.00
6:53 pm 18:53 Sunny 83 28.3 47 8.3 28 28 ENE 17 28 29.91 1013 10 16 0.00 0.00
7:53 pm 19:53 Sunny 81 27.2 47 8.3 30 30 E 16 26 29.93 1013 10 16 0.00 0.00
8:53 pm 20:53 Clear 78 25.6 48 8.9 35 35 ESE 14 22 29.96 1015 10 16 0.00 0.00
9:53 pm 21:53 Clear 74 23.3 50 10 43 43 E 7 11 29.96 1015 10 16 0.00 0.00
10:53 pm 22:53 Clear 71 21.7 51 10.6 49 49 E 6 9 29.95 1014 10 16 0.00 0.00
11:53 pm 23:53 Clear 69 20.6 51 10.6 53 53 ENE 6 9 29.97 1015 10 16 0.00 0.00

Powered by AerisWeather